Tracking 30923 objects as of 1-Jul-2025
HD Live streaming from Space Station
objects crossing your sky now

USA 12

Track USA 12 now!
USA 12 is classified as:


NORAD ID: 16117
Int'l Code: 1985-092C
Perigee: 36,129.3 km
Apogee: 36,183.3 km
Inclination: 14.5 °
Period: 1,454.7 minutes
Semi major axis: 42527 km
RCS: Unknown
Launch date: October 3, 1985
Source: United States (US)
Launch site: AIR FORCE EASTERN TEST RANGE (AFETR)
Your satellite tracking list
Your tracking list is empty




NASA's NSSDC Master Catalog

Two Line Element Set (TLE):
1 16117U 85092C   25181.27625124 -.00000264  00000-0  00000-0 0  9999
2 16117  14.4689 348.8537 0006349 123.4691 235.2274  0.98992387 22235
Source of the keplerian elements: McCants